SL-8 R/B, 9848

Orbit data source: Space-Track

SL-8 R/B, 9848 is space debris in LEO originally from a launch on Mon, 21 Feb 1977 UTC launched from the Plesetsk Missile And Space Complex (PKMTR). Debris objects in space refer to the collection of defunct objects orbiting the Earth. Examples of debris include non-operational satellites, rocket bodies, and fragments generated from explosions, collisions, or faulty payload assembly.

Loading next visibility...
Identifier
9848, 1977-013B
Orbit
LEO
Country
Flag of CISCIS
Related business
Manufacturer
Omsk Av. Zav.
Mission
Spacecraft
Bus & Motor
S3, Unknown motor
Mass
1,434 kg wet, 1,434 kg dry
Launch date (UTC)
1977-02-21 (49 years ago)
Launch vehicle
Unknown
Launch site
Plesetsk Missile And Space Complex (PKMTR)
Object type
Payload
Rocket body
Debris
Shape & HBR
Cyl, 2.1 m
Radar Cross Section
10.179 m², Large (>1 m²)

Expand to show TLE details & history
Last TLE update: 21 hours ago

TLE from 21 hours ago
0 SL-8 R/B
1 09848U 77013B   25260.57309709 -.00000031  00000-0 -47988-4 0  9998
2 09848  82.9462 273.5667 0017894 105.5466   7.9765 13.75732285437465
Epoch: 2025-09-17T13:45Z
TLE epoch observation values (Epoch: 2025-09-17T13:45:15.588Z)
Latitude
65.55712°
Longitude
-125.2085°
Altitude
977.349 km
Speed
7.376 km/s
True Right ascension
05h 11m 24s
True Declination
65° 25' 52"
Sunlit
Object was in daylight at epoch
Visualization orbit readout
Latitude
Unknown
Longitude
Unknown
Altitude
Unknown
Speed
Unknown
Apparent Right ascension
Unknown
Apparent Declination
Unknown
Sunlit
N/A
Visualization observer readout
Local Sidereal Time
03:21:50
Azimuth
Unknown
Elevation
Unknown
Doppler factor
Unknown
Orbital elements
Apogee altitude
989.37 km
Perigee altitude
963.051 km
Semi-major axis
7,354.348 km
Eccentricity
0.00179
Inclination
82.9462°
RAAN
273.5667°
Arg. of periapsis
105.5466°
True anomaly
8.00502°
Mean anomaly
7.9765°
Eccentric anomaly
7.99075°
Mean motion
3.44133 °/min
Orbital period
104.61 mins
BSTAR
-0.000047988
Loading maneuver chart data...
Computing Atmospheric mass density...
Loading historical data...
Loading historical data...
Loading historical data...
Loading historical data...
Loading historical data...
Loading historical data...
Loading historical data...
Other satellites on launch #13 in the year 1977 (1977-02-21 UTC)

Documentation

Showing up to 5 results
|